[TLELIST]

Mailing List Information:

  • This mailing list is a public mailing list - anyone may join or leave, at any time.

  • This mailing list is announce-only.

International Space Station (ISS) / Hubble Space Telescope (HST) / Chandra X-Ray Observatory Orbital Data via EMAIL

Privacy Policy:

Private list

Archives:

[TLELIST] Current TLEs

Sent July 24th 2017

HST 1 20580U 90037B 17204.92655730 +.00000435 +00000-0 +15766-4 0 9996 2 20580 028.4695 124.7473 0002715 204.4286 238.1288 15.08803008295753 ISS (ZARYA) 1 25544U 98067A 17204.81505787 +.00004232 +00000-0 +70891-4 0 9995 2 25544 051.6404 215.7419 0006161 065.5481 285.3443 15.54227686067440 CXO 1 25867U 99040B 17206.38485340 +.00000478 +00000-0 +00000-0 0 9990 2 25867 073.7978 289.3536 6817080 250.8186 000.2878 00.37803570016192 ____________________________________________________________________ These 2-Line ...

[TLELIST] Current TLEs

Sent July 23rd 2017

HST 1 20580U 90037B 17203.93101142 +.00000471 +00000-0 +18008-4 0 9991 2 20580 028.4694 131.3259 0002751 193.5799 230.7688 15.08802590295606 ISS (ZARYA) 1 25544U 98067A 17203.86281652 +.00004407 +00000-0 +73541-4 0 9990 2 25544 051.6406 220.4890 0006189 062.7487 356.6347 15.54220120067309 CXO 1 25867U 99040B 17206.38485340 +.00000478 +00000-0 +00000-0 0 9990 2 25867 073.7978 289.3536 6817080 250.8186 000.2878 00.37803570016192 ____________________________________________________________________ These 2-Line ...

[TLELIST] Current TLEs

Sent July 22nd 2017

HST 1 20580U 90037B 17202.94126949 +.00000467 +00000-0 +17741-4 0 9991 2 20580 028.4693 137.8662 0002789 182.7309 254.9977 15.08801890295456 ISS (ZARYA) 1 25544U 98067A 17202.82091435 +.00003186 +00000-0 +55217-4 0 9996 2 25544 051.6407 225.6838 0006200 059.7154 286.1645 15.54204805067131 CXO 1 25867U 99040B 17203.73896508 +.00000539 +00000-0 +00000-0 0 9996 2 25867 073.8195 289.4197 6813306 250.8802 000.0921 00.37797140016181 ____________________________________________________________________ These 2-Line ...

[TLELIST] Current TLEs

Sent July 21st 2017

HST 1 20580U 90037B 17202.22598491 +.00000426 +00000-0 +15202-4 0 9992 2 20580 028.4692 142.5929 0002811 174.9981 329.8315 15.08801155295349 ISS (ZARYA) 1 25544U 98067A 17202.25860705 +.00002617 +00000-0 +46671-4 0 9999 2 25544 051.6406 228.4871 0006083 057.5520 020.0514 15.54198040067054 CXO 1 25867U 99040B 17203.73896508 +.00000539 +00000-0 +00000-0 0 9996 2 25867 073.8195 289.4197 6813306 250.8802 000.0921 00.37797140005055 ____________________________________________________________________ These 2-Line ...

[TLELIST] Current TLEs

Sent July 20th 2017

HST 1 20580U 90037B 17200.53968750 +.00000497 +00000-0 +19661-4 0 9994 2 20580 028.4690 153.7362 0002875 157.5794 169.6709 15.08800371295088 ISS (ZARYA) 1 25544U 98067A 17200.53580868 +.00002699 +00000-0 +47931-4 0 9997 2 25544 051.6411 237.0740 0006096 050.6741 101.3213 15.54187590066780 CXO 1 25867U 99040B 17201.09532400 +.00000608 +00000-0 +00000-0 0 9998 2 25867 073.8327 289.4652 6811020 250.9720 000.1537 00.37796958016174 ____________________________________________________________________ These 2-Line ...

[TLELIST] Current TLEs

Sent July 19th 2017

HST 1 20580U 90037B 17198.96830575 +.00000621 +00000-0 +27350-4 0 9993 2 20580 028.4688 164.1202 0002934 141.4627 273.6378 15.08800004294852 ISS (ZARYA) 1 25544U 98067A 17198.89938657 +.00000988 +00000-0 +22167-4 0 9998 2 25544 051.6416 245.2318 0005849 047.2823 302.7554 15.54170925066526 CXO 1 25867U 99040B 17198.45225537 +.00000655 +00000-0 +00000-0 0 9995 2 25867 073.8385 289.5121 6810345 251.0571 000.2881 00.37802776005037 ____________________________________________________________________ These 2-Line ...

[TLELIST] Current TLEs

Sent July 18th 2017

HST 1 20580U 90037B 17198.96830575 +.00000621 +00000-0 +27350-4 0 9993 2 20580 028.4688 164.1202 0002934 141.4627 273.6378 15.08800004294852 ISS (ZARYA) 1 25544U 98067A 17198.89938657 +.00000988 +00000-0 +22167-4 0 9998 2 25544 051.6416 245.2318 0005849 047.2823 302.7554 15.54170925066526 CXO 1 25867U 99040B 17198.45225537 +.00000655 +00000-0 +00000-0 0 9995 2 25867 073.8385 289.5121 6810345 251.0571 000.2881 00.37802776005037 ____________________________________________________________________ These 2-Line ...

[TLELIST] Current TLEs

Sent July 17th 2017

HST 1 20580U 90037B 17197.97411878 +.00000590 +00000-0 +25422-4 0 9997 2 20580 028.4686 170.6900 0002960 131.2742 273.0244 15.08799097294700 ISS (ZARYA) 1 25544U 98067A 17197.86797454 +.00000375 +00000-0 +12930-4 0 9999 2 25544 051.6415 250.3755 0005794 043.2537 292.1872 15.54165091066369 CXO 1 25867U 99040B 17198.45225537 +.00000655 +00000-0 +00000-0 0 9995 2 25867 073.8385 289.5121 6810345 251.0571 000.2881 00.37802776005037 ____________________________________________________________________ These 2-Line ...

[TLELIST] Current TLEs

Sent July 16th 2017

HST 1 20580U 90037B 17196.77921296 +.00000450 +00000-0 +16739-4 0 9990 2 20580 028.4685 178.5862 0002979 119.1373 261.9642 15.08797671294522 ISS (ZARYA) 1 25544U 98067A 17196.90495370 +.00000744 +00000-0 +18500-4 0 9994 2 25544 051.6420 255.1768 0005840 039.8818 303.8962 15.54164879066214 CXO 1 25867U 99040B 17198.45225537 +.00000655 +00000-0 +00000-0 0 9995 2 25867 073.8385 289.5121 6810345 251.0571 000.2881 00.37802776005037 ____________________________________________________________________ These 2-Line ...

[TLELIST] Current TLEs

Sent July 15th 2017

HST 1 20580U 90037B 17195.78512733 +.00000389 +00000-0 +12948-4 0 9991 2 20580 028.4685 185.1555 0002996 109.2086 261.6509 15.08796940294375 ISS (ZARYA) 1 25544U 98067A 17195.87565972 +.00001417 +00000-0 +28645-4 0 9994 2 25544 051.6423 260.3080 0005347 036.4034 304.6822 15.54165554066054 CXO 1 25867U 99040B 17195.80952363 +.00000674 +00000-0 +00000-0 0 9996 2 25867 073.8498 289.5498 6810279 251.1370 000.4651 00.37807651016152 ____________________________________________________________________ These 2-Line ...

< < Previous

Index

 

this list's archives:

(archive rss , atom rss/atom )

Administration